Terug naar catalogus

STARLINK-36242

ActiefCommunicatieVLEO
NORAD 68958·PAYLOAD·🇺🇸 United States

Gelanceerd May 1, 2026 vanaf Cape Canaveral Space Force Station

Loading…

Volgende Passages (komende 24 uur)

TLE

VersSource: CelesTrak SupGP

Epoch: Sep 14, 2026, 21:06 UTC

1 68958C 26099H   26257.87965278  .00070826  00000+0  20909-2 0  2577
2 68958  53.1576 102.1680 0001286  77.2423 154.2093 15.34381162    14

Volg STARLINK-36242 in realtime met AllMySat

Download on the App Store